Regional Weather Roundup
Issued by NWS

Home | Current Version | Previous Version | Text Only | Print | Product List | Glossary On
Versions: 1 2 3 4 5 6 7 8 9 10 11 12 13 14 15 16 17 18 19 20 21 22 23 24 25 26 27 28 29 30 31 32 33 34 35 36 37 38 39 40 41 42 43 44 45 46 47 48 49 50
000
ASUS43 KTOP 300908
RWRKS

WEATHER ROUNDUP FOR KANSAS
NATIONAL WEATHER SERVICE GOODLAND KS
400 AM CDT SAT MAY 30 2015

NOTE:  "FAIR" INDICATES FEW OR NO CLOUDS BELOW 12,000 FEET WITH NO
SIGNIFICANT WEATHER AND/OR OBSTRUCTIONS TO VISIBILITY.

KSZ001>006-013>018-027>032-041>047-301000-
NORTHWEST KANSAS

CITY           SKY/WX    TMP DP  RH WIND       PRES   REMARKS
GOODLAND       CLOUDY    49  47  93 N10       30.30R
HAYS           CLOUDY    54  43  66 N20G28    30.19F
HILL CITY      CLOUDY    51  45  79 N20G25    30.23F
RUSSELL        CLOUDY    53  48  83 N18G26    30.17S
$$

KSZ061>065-074>080-084>089-301000-
SOUTHWEST KANSAS

CITY           SKY/WX    TMP DP  RH WIND       PRES   REMARKS
DODGE CITY     CLOUDY    53  48  83 N24       30.16F
ELKHART          N/A     52  43  72 N15         N/A
GARDEN CITY    CLOUDY    51  49  92 N24       30.19F
GREAT BEND     CLOUDY    52  46  82 N21G28    30.17F
LIBERAL        CLOUDY    55  46  71 N23G30    30.19S
PRATT          CLOUDY    54  48  82 N23G29    30.14F
$$

KSZ066>073-081>083-090>101-301000-
SOUTHEAST KANSAS

CITY           SKY/WX    TMP DP  RH WIND       PRES   REMARKS
CHANUTE        CLOUDY    65  64  97 W8        29.98S FOG
COFFEYVILLE    CLOUDY    63  62  97 CALM      29.97S
HUTCHINSON     CLOUDY    56  49  77 N16G29    30.11S
MEDICINE LODGE   N/A     57  51  80 N23G36    30.08F
NEWTON         CLOUDY    55  48  76 N21G28    30.10S
PARSONS        CLOUDY    64  64 100 CALM      29.99S
WICHITA INTL   CLOUDY    59  52  77 N20       30.07S
WICHITA JABRA  CLOUDY    57  52  83 NW21      30.07R
WICHITA MCCONL CLOUDY    58  54  85 NW18G25   30.06S
WINFIELD       CLOUDY    60  56  86 N16G26    30.04F
$$

KSZ007>012-019>026-033>040-048>060-102>105-301000-
NORTHEAST KANSAS

CITY           SKY/WX    TMP DP  RH WIND       PRES   REMARKS
CONCORDIA      CLOUDY    50  46  86 N16G30    30.14S
EMPORIA        CLOUDY    58  57  97 NW13G22   30.04R FOG
LAWRENCE       CLOUDY    62  60  93 N18       30.00R
MANHATTAN      CLOUDY    56  52  86 N6G21     30.09R
MARYSVILLE     CLOUDY    52  50  93 N15G24    30.10R
OLATHE IND     CLOUDY    64  63  96 NW9       29.99R
OLATHE EXE     CLOUDY    65  64  97 W6        29.97R
SALINA         CLOUDY    54  50  86 N17       30.14S
TOPEKA BILLARD CLOUDY    59  58  96 NW13      30.03R FOG
TOPEKA FORBES  CLOUDY    60  57  89 NW17G25   30.02R FOG
$$



USA.gov is the U.S. government's official web portal to all federal, state and local government web resources and services.